Time,TemperatureF,DewpointF,PressureIn,WindDirection,WindDirectionDegrees,WindSpeedMPH,WindSpeedGustMPH,Humidity,HourlyPrecipIn,Conditions,Clouds,dailyrainin,SoftwareType,DateUTC
2013-09-05 00:03:00,65.9,61.3,30.00,SW,219,0.0,0.0,85,0.00,,,0.00,WUHU216DAVISVP2,2013-09-05 04:03:00,
2013-09-05 00:08:00,65.8,61.2,30.00,SW,219,0.0,0.0,85,0.00,,,0.00,WUHU216DAVISVP2,2013-09-05 04:08:00,
2013-09-05 00:13:00,65.8,61.5,30.00,SW,219,1.0,1.0,86,0.00,,,0.00,WUHU216DAVISVP2,2013-09-05 04:13:00,
2013-09-05 00:18:00,65.7,61.4,30.00,SW,219,0.0,1.0,86,0.00,,,0.00,WUHU216DAVISVP2,2013-09-05 04:18:00,
2013-09-05 00:23:00,65.8,61.5,30.00,SW,219,0.0,1.0,86,0.00,,,0.00,WUHU216DAVISVP2,2013-09-05 04:23:00,
2013-09-05 00:28:00,65.8,61.5,30.00,SW,219,0.0,1.0,86,0.00,,,0.00,WUHU216DAVISVP2,2013-09-05 04:28:00,
2013-09-05 00:33:00,65.8,61.2,30.00,SW,219,0.0,1.0,85,0.00,,,0.00,WUHU216DAVISVP2,2013-09-05 04:33:00,
2013-09-05 00:38:00,65.9,61.3,30.00,SW,219,0.0,1.0,85,0.00,,,0.00,WUHU216DAVISVP2,2013-09-05 04:38:00,
2013-09-05 00:43:00,66.0,61.4,30.00,SW,219,0.0,2.0,85,0.00,,,0.00,WUHU216DAVISVP2,2013-09-05 04:43:00,
2013-09-05 00:48:00,66.2,61.6,30.00,SW,219,0.0,2.0,85,0.00,,,0.00,WUHU216DAVISVP2,2013-09-05 04:48:00,
2013-09-05 00:53:00,66.2,61.6,30.00,SW,219,0.0,2.0,85,0.00,,,0.00,WUHU216DAVISVP2,2013-09-05 04:53:00,
2013-09-05 00:58:00,66.3,61.7,30.00,SW,219,0.0,2.0,85,0.00,,,0.00,WUHU216DAVISVP2,2013-09-05 04:58:00,
2013-09-05 01:03:00,66.3,62.0,30.01,SW,219,0.0,1.0,86,0.00,,,0.00,WUHU216DAVISVP2,2013-09-05 05:03:00,
2013-09-05 01:08:00,66.3,62.0,30.00,SW,219,0.0,1.0,86,0.00,,,0.00,WUHU216DAVISVP2,2013-09-05 05:08:00,
2013-09-05 01:13:00,66.2,61.9,30.01,SW,219,0.0,0.0,86,0.00,,,0.00,WUHU216DAVISVP2,2013-09-05 05:13:00,
2013-09-05 01:18:00,66.2,61.9,30.00,SW,219,0.0,0.0,86,0.00,,,0.00,WUHU216DAVISVP2,2013-09-05 05:18:00,
2013-09-05 01:23:00,66.2,62.2,30.01,SW,219,0.0,0.0,87,0.00,,,0.00,WUHU216DAVISVP2,2013-09-05 05:23:00,
2013-09-05 01:28:00,66.1,62.1,30.01,SW,222,0.0,1.0,87,0.00,,,0.00,WUHU216DAVISVP2,2013-09-05 05:28:00,
2013-09-05 01:33:00,66.2,62.8,30.00,NW,314,0.0,1.0,89,0.00,,,0.00,WUHU216DAVISVP2,2013-09-05 05:33:00,
2013-09-05 01:38:00,66.2,62.8,30.00,NW,314,0.0,1.0,89,0.00,,,0.00,WUHU216DAVISVP2,2013-09-05 05:38:00,
2013-09-05 01:43:00,66.2,62.8,30.01,NW,314,0.0,1.0,89,0.00,,,0.00,WUHU216DAVISVP2,2013-09-05 05:43:00,
2013-09-05 01:48:00,66.1,62.4,30.00,NW,313,0.0,1.0,88,0.00,,,0.00,WUHU216DAVISVP2,2013-09-05 05:48:00,
2013-09-05 01:53:00,66.0,62.3,30.00,NW,313,0.0,1.0,88,0.00,,,0.00,WUHU216DAVISVP2,2013-09-05 05:53:00,
2013-09-05 01:58:00,65.8,62.1,30.00,NW,314,0.0,1.0,88,0.00,,,0.00,WUHU216DAVISVP2,2013-09-05 05:58:00,
2013-09-05 02:03:00,65.6,61.9,30.00,NW,314,0.0,1.0,88,0.00,,,0.00,WUHU216DAVISVP2,2013-09-05 06:03:00,
2013-09-05 02:08:00,65.5,61.8,30.00,NW,314,0.0,0.0,88,0.00,,,0.00,WUHU216DAVISVP2,2013-09-05 06:08:00,
2013-09-05 02:13:00,65.3,62.0,30.00,NW,314,0.0,0.0,89,0.00,,,0.00,WUHU216DAVISVP2,2013-09-05 06:13:00,
2013-09-05 02:18:00,65.1,61.8,30.00,NW,314,0.0,0.0,89,0.00,,,0.00,WUHU216DAVISVP2,2013-09-05 06:18:00,
2013-09-05 02:23:00,64.9,61.6,30.00,NW,313,0.0,0.0,89,0.00,,,0.00,WUHU216DAVISVP2,2013-09-05 06:23:00,
2013-09-05 02:28:00,64.7,61.7,29.99,NW,313,1.0,1.0,90,0.00,,,0.00,WUHU216DAVISVP2,2013-09-05 06:28:00,
2013-09-05 02:33:00,64.6,61.6,29.99,NW,313,0.0,1.0,90,0.00,,,0.00,WUHU216DAVISVP2,2013-09-05 06:33:00,
2013-09-05 02:38:00,64.6,61.6,29.99,NW,313,0.0,1.0,90,0.00,,,0.00,WUHU216DAVISVP2,2013-09-05 06:38:00,
2013-09-05 02:43:00,64.5,61.5,29.99,NW,313,0.0,1.0,90,0.00,,,0.00,WUHU216DAVISVP2,2013-09-05 06:43:00,
2013-09-05 02:48:00,64.3,61.3,29.99,NW,313,0.0,1.0,90,0.00,,,0.00,WUHU216DAVISVP2,2013-09-05 06:48:00,
2013-09-05 02:53:00,64.3,61.6,29.99,NW,314,0.0,1.0,91,0.00,,,0.00,WUHU216DAVISVP2,2013-09-05 06:53:00,
2013-09-05 02:58:00,64.3,61.9,29.99,NW,313,0.0,1.0,92,0.00,,,0.00,WUHU216DAVISVP2,2013-09-05 06:58:00,
2013-09-05 03:03:00,64.2,61.8,29.99,NW,313,0.0,1.0,92,0.00,,,0.00,WUHU216DAVISVP2,2013-09-05 07:03:00,
2013-09-05 03:08:00,64.1,61.4,29.99,NW,313,0.0,1.0,91,0.00,,,0.00,WUHU216DAVISVP2,2013-09-05 07:08:00,
2013-09-05 03:13:00,64.0,61.6,29.99,NW,313,0.0,1.0,92,0.00,,,0.00,WUHU216DAVISVP2,2013-09-05 07:13:00,
2013-09-05 03:18:00,63.9,61.5,29.99,NW,313,1.0,1.0,92,0.00,,,0.00,WUHU216DAVISVP2,2013-09-05 07:18:00,
2013-09-05 03:23:00,63.8,61.4,29.99,NW,313,0.0,1.0,92,0.00,,,0.00,WUHU216DAVISVP2,2013-09-05 07:23:00,
2013-09-05 03:28:00,63.7,61.3,29.99,NW,313,0.0,1.0,92,0.00,,,0.00,WUHU216DAVISVP2,2013-09-05 07:28:00,
2013-09-05 03:33:00,63.7,61.3,29.99,NW,313,0.0,1.0,92,0.00,,,0.00,WUHU216DAVISVP2,2013-09-05 07:33:00,
2013-09-05 03:38:00,63.7,61.3,29.99,NW,313,0.0,1.0,92,0.00,,,0.00,WUHU216DAVISVP2,2013-09-05 07:38:00,
2013-09-05 03:43:00,63.6,61.2,29.99,NW,313,0.0,1.0,92,0.00,,,0.00,WUHU216DAVISVP2,2013-09-05 07:43:00,
2013-09-05 03:48:00,63.6,61.2,29.99,NW,313,0.0,1.0,92,0.00,,,0.00,WUHU216DAVISVP2,2013-09-05 07:48:00,
2013-09-05 03:53:00,63.5,61.1,29.99,NW,313,0.0,1.0,92,0.00,,,0.00,WUHU216DAVISVP2,2013-09-05 07:53:00,
2013-09-05 03:58:00,63.5,61.1,29.99,NW,313,0.0,1.0,92,0.00,,,0.00,WUHU216DAVISVP2,2013-09-05 07:58:00,
2013-09-05 04:03:00,63.5,61.1,29.99,NW,313,0.0,1.0,92,0.00,,,0.00,WUHU216DAVISVP2,2013-09-05 08:03:00,
2013-09-05 04:08:00,63.5,61.1,29.99,NW,313,0.0,1.0,92,0.00,,,0.00,WUHU216DAVISVP2,2013-09-05 08:08:00,
2013-09-05 04:13:00,63.4,61.0,29.99,NW,313,0.0,0.0,92,0.00,,,0.00,WUHU216DAVISVP2,2013-09-05 08:13:00,
2013-09-05 04:18:00,63.2,60.8,29.99,NW,313,0.0,0.0,92,0.00,,,0.00,WUHU216DAVISVP2,2013-09-05 08:18:00,
2013-09-05 04:23:00,63.2,61.1,29.99,NW,313,0.0,0.0,93,0.00,,,0.00,WUHU216DAVISVP2,2013-09-05 08:23:00,
2013-09-05 04:28:00,63.1,61.0,29.99,NW,313,0.0,0.0,93,0.00,,,0.00,WUHU216DAVISVP2,2013-09-05 08:28:00,
2013-09-05 04:33:00,63.0,60.9,29.99,NW,313,0.0,0.0,93,0.00,,,0.00,WUHU216DAVISVP2,2013-09-05 08:33:00,
2013-09-05 04:38:00,63.0,60.9,29.99,NW,313,0.0,0.0,93,0.00,,,0.00,WUHU216DAVISVP2,2013-09-05 08:38:00,
2013-09-05 04:43:00,62.9,60.8,29.99,NW,314,0.0,0.0,93,0.00,,,0.00,WUHU216DAVISVP2,2013-09-05 08:43:00,
2013-09-05 04:48:00,62.9,60.8,29.99,NW,313,0.0,0.0,93,0.00,,,0.00,WUHU216DAVISVP2,2013-09-05 08:48:00,
2013-09-05 04:53:00,62.9,60.8,30.00,NW,313,0.0,0.0,93,0.00,,,0.00,WUHU216DAVISVP2,2013-09-05 08:53:00,
2013-09-05 04:58:00,62.9,60.8,30.00,NW,313,0.0,1.0,93,0.00,,,0.00,WUHU216DAVISVP2,2013-09-05 08:58:00,
2013-09-05 05:03:00,62.9,60.8,30.00,NW,313,0.0,1.0,93,0.00,,,0.00,WUHU216DAVISVP2,2013-09-05 09:03:00,
2013-09-05 05:08:00,62.9,60.8,29.99,NW,313,0.0,1.0,93,0.00,,,0.00,WUHU216DAVISVP2,2013-09-05 09:08:00,
2013-09-05 05:13:00,63.0,60.9,29.99,NW,313,0.0,1.0,93,0.00,,,0.00,WUHU216DAVISVP2,2013-09-05 09:13:00,
2013-09-05 05:18:00,62.9,60.5,29.99,NW,313,0.0,1.0,92,0.00,,,0.00,WUHU216DAVISVP2,2013-09-05 09:18:00,
2013-09-05 05:23:00,62.9,60.5,29.99,NW,313,0.0,1.0,92,0.00,,,0.00,WUHU216DAVISVP2,2013-09-05 09:23:00,
2013-09-05 05:28:00,62.9,60.5,29.99,NW,313,0.0,1.0,92,0.00,,,0.00,WUHU216DAVISVP2,2013-09-05 09:28:00,
2013-09-05 05:33:00,62.9,60.5,29.99,NW,313,0.0,1.0,92,0.00,,,0.00,WUHU216DAVISVP2,2013-09-05 09:33:00,
2013-09-05 05:38:00,62.9,60.5,30.00,NW,313,0.0,1.0,92,0.00,,,0.00,WUHU216DAVISVP2,2013-09-05 09:38:00,
2013-09-05 05:43:00,62.9,60.5,30.00,NW,313,0.0,1.0,92,0.00,,,0.00,WUHU216DAVISVP2,2013-09-05 09:43:00,
2013-09-05 05:48:00,63.0,60.3,30.00,NW,313,0.0,1.0,91,0.00,,,0.00,WUHU216DAVISVP2,2013-09-05 09:48:00,
2013-09-05 05:53:00,63.0,60.3,30.00,NW,313,0.0,1.0,91,0.00,,,0.00,WUHU216DAVISVP2,2013-09-05 09:53:00,
2013-09-05 05:58:00,63.0,60.0,30.00,NW,313,0.0,1.0,90,0.00,,,0.00,WUHU216DAVISVP2,2013-09-05 09:58:00,
2013-09-05 06:03:00,63.0,60.0,30.00,NW,313,0.0,1.0,90,0.00,,,0.00,WUHU216DAVISVP2,2013-09-05 10:03:00,
2013-09-05 06:08:00,63.1,59.8,30.00,NW,313,0.0,1.0,89,0.00,,,0.00,WUHU216DAVISVP2,2013-09-05 10:08:00,
2013-09-05 06:13:00,63.3,60.0,29.99,NW,313,0.0,1.0,89,0.00,,,0.00,WUHU216DAVISVP2,2013-09-05 10:13:00,
2013-09-05 06:18:00,63.4,59.8,30.00,NW,314,0.0,1.0,88,0.00,,,0.00,WUHU216DAVISVP2,2013-09-05 10:18:00,
2013-09-05 06:23:00,63.5,59.9,30.00,NW,313,0.0,1.0,88,0.00,,,0.00,WUHU216DAVISVP2,2013-09-05 10:23:00,
2013-09-05 06:28:00,63.6,60.0,30.00,NW,313,0.0,1.0,88,0.00,,,0.00,WUHU216DAVISVP2,2013-09-05 10:28:00,
2013-09-05 06:33:00,63.8,59.9,30.00,West,264,0.0,2.0,87,0.00,,,0.00,WUHU216DAVISVP2,2013-09-05 10:33:00,
2013-09-05 06:38:00,63.8,59.9,30.00,West,264,0.0,2.0,87,0.00,,,0.00,WUHU216DAVISVP2,2013-09-05 10:38:00,
2013-09-05 06:43:00,63.7,59.8,30.00,West,264,0.0,2.0,87,0.00,,,0.00,WUHU216DAVISVP2,2013-09-05 10:43:00,
2013-09-05 06:48:00,63.6,59.7,30.00,West,264,0.0,2.0,87,0.00,,,0.00,WUHU216DAVISVP2,2013-09-05 10:48:00,
2013-09-05 06:53:00,63.6,59.7,30.00,West,264,0.0,0.0,87,0.00,,,0.00,WUHU216DAVISVP2,2013-09-05 10:53:00,
2013-09-05 06:58:00,63.6,59.7,30.00,West,264,0.0,1.0,87,0.00,,,0.00,WUHU216DAVISVP2,2013-09-05 10:58:00,
2013-09-05 07:03:00,63.6,59.7,30.00,West,264,0.0,1.0,87,0.00,,,0.00,WUHU216DAVISVP2,2013-09-05 11:03:00,
2013-09-05 07:08:00,63.6,59.7,30.00,West,264,0.0,1.0,87,0.00,,,0.00,WUHU216DAVISVP2,2013-09-05 11:08:00,
2013-09-05 07:13:00,63.7,59.8,30.00,West,264,0.0,1.0,87,0.00,,,0.00,WUHU216DAVISVP2,2013-09-05 11:13:00,
2013-09-05 07:18:00,63.7,60.1,30.00,West,264,0.0,0.0,88,0.00,,,0.00,WUHU216DAVISVP2,2013-09-05 11:18:00,
2013-09-05 07:23:00,63.8,60.2,30.00,West,264,0.0,0.0,88,0.00,,,0.00,WUHU216DAVISVP2,2013-09-05 11:23:00,
2013-09-05 07:28:00,63.8,59.9,30.00,West,264,0.0,1.0,87,0.00,,,0.00,WUHU216DAVISVP2,2013-09-05 11:28:00,
2013-09-05 07:33:00,63.9,60.0,30.00,West,264,0.0,1.0,87,0.00,,,0.00,WUHU216DAVISVP2,2013-09-05 11:33:00,
2013-09-05 07:38:00,64.1,60.1,30.00,West,264,0.0,1.0,87,0.00,,,0.00,WUHU216DAVISVP2,2013-09-05 11:38:00,
2013-09-05 07:43:00,64.3,60.3,30.00,West,264,0.0,1.0,87,0.00,,,0.00,WUHU216DAVISVP2,2013-09-05 11:43:00,
2013-09-05 07:48:00,64.6,60.3,30.00,West,264,0.0,1.0,86,0.00,,,0.00,WUHU216DAVISVP2,2013-09-05 11:48:00,
2013-09-05 07:53:00,64.9,60.6,30.00,West,264,0.0,1.0,86,0.00,,,0.00,WUHU216DAVISVP2,2013-09-05 11:53:00,
2013-09-05 07:58:00,65.3,61.0,30.00,West,263,0.0,1.0,86,0.00,,,0.00,WUHU216DAVISVP2,2013-09-05 11:58:00,
2013-09-05 08:03:00,65.7,61.1,30.00,West,264,0.0,1.0,85,0.00,,,0.00,WUHU216DAVISVP2,2013-09-05 12:03:00,
2013-09-05 08:08:00,66.1,61.2,30.00,West,264,0.0,1.0,84,0.00,,,0.00,WUHU216DAVISVP2,2013-09-05 12:08:00,
2013-09-05 08:13:00,66.6,61.3,30.00,West,264,0.0,1.0,83,0.00,,,0.00,WUHU216DAVISVP2,2013-09-05 12:13:00,
2013-09-05 08:18:00,67.0,61.7,30.00,West,264,0.0,1.0,83,0.00,,,0.00,WUHU216DAVISVP2,2013-09-05 12:18:00,
2013-09-05 08:23:00,67.4,61.8,30.00,WSW,246,1.0,2.0,82,0.00,,,0.00,WUHU216DAVISVP2,2013-09-05 12:23:00,
2013-09-05 08:28:00,67.9,61.6,30.00,WSW,246,0.0,2.0,80,0.00,,,0.00,WUHU216DAVISVP2,2013-09-05 12:28:00,
2013-09-05 08:33:00,68.5,61.5,30.00,SSW,200,0.0,2.0,78,0.00,,,0.00,WUHU216DAVISVP2,2013-09-05 12:33:00,
2013-09-05 08:38:00,69.1,61.7,30.00,SSW,200,0.0,2.0,77,0.00,,,0.00,WUHU216DAVISVP2,2013-09-05 12:38:00,
2013-09-05 08:43:00,69.7,61.9,30.00,SW,227,0.0,3.0,76,0.00,,,0.00,WUHU216DAVISVP2,2013-09-05 12:43:00,
2013-09-05 08:48:00,70.2,61.7,30.00,SW,214,0.0,3.0,74,0.00,,,0.00,WUHU216DAVISVP2,2013-09-05 12:48:00,
2013-09-05 08:53:00,70.7,62.0,29.99,SW,232,2.0,4.0,74,0.00,,,0.00,WUHU216DAVISVP2,2013-09-05 12:53:00,
2013-09-05 08:58:00,71.3,61.8,29.99,NW,305,0.0,4.0,72,0.00,,,0.00,WUHU216DAVISVP2,2013-09-05 12:58:00,
2013-09-05 09:03:00,71.8,61.9,29.99,NNE,29,0.0,4.0,71,0.00,,,0.00,WUHU216DAVISVP2,2013-09-05 13:03:00,
2013-09-05 09:08:00,72.3,62.4,29.99,NW,306,0.0,5.0,71,0.00,,,0.00,WUHU216DAVISVP2,2013-09-05 13:08:00,
2013-09-05 09:13:00,72.7,62.8,29.99,South,184,2.0,5.0,71,0.00,,,0.00,WUHU216DAVISVP2,2013-09-05 13:13:00,
2013-09-05 09:18:00,73.2,62.4,29.99,West,263,0.0,5.0,69,0.00,,,0.00,WUHU216DAVISVP2,2013-09-05 13:18:00,
2013-09-05 09:23:00,73.9,62.7,29.99,WNW,296,1.0,5.0,68,0.00,,,0.00,WUHU216DAVISVP2,2013-09-05 13:23:00,
2013-09-05 09:28:00,74.5,63.0,30.00,SSW,207,2.0,4.0,67,0.00,,,0.00,WUHU216DAVISVP2,2013-09-05 13:28:00,
2013-09-05 09:33:00,75.2,62.8,30.00,SSE,147,0.0,5.0,65,0.00,,,0.00,WUHU216DAVISVP2,2013-09-05 13:33:00,
2013-09-05 09:38:00,75.9,62.6,30.00,SSE,161,3.0,5.0,63,0.00,,,0.00,WUHU216DAVISVP2,2013-09-05 13:38:00,
2013-09-05 09:43:00,76.5,62.7,30.00,South,191,2.0,6.0,62,0.00,,,0.00,WUHU216DAVISVP2,2013-09-05 13:43:00,
2013-09-05 09:48:00,77.2,63.4,30.00,South,191,2.0,6.0,62,0.00,,,0.00,WUHU216DAVISVP2,2013-09-05 13:48:00,
2013-09-05 09:53:00,77.5,63.2,30.00,NNW,345,2.0,6.0,61,0.00,,,0.00,WUHU216DAVISVP2,2013-09-05 13:53:00,
2013-09-05 09:58:00,77.8,62.8,30.00,South,170,0.0,6.0,60,0.00,,,0.00,WUHU216DAVISVP2,2013-09-05 13:58:00,
2013-09-05 10:03:00,78.2,63.9,30.00,South,188,1.0,6.0,61,0.00,,,0.00,WUHU216DAVISVP2,2013-09-05 14:03:00,
2013-09-05 10:08:00,78.8,63.3,30.00,SSW,211,0.0,5.0,59,0.00,,,0.00,WUHU216DAVISVP2,2013-09-05 14:08:00,
2013-09-05 10:13:00,79.2,62.7,30.00,SSE,152,1.0,9.0,57,0.00,,,0.00,WUHU216DAVISVP2,2013-09-05 14:13:00,
2013-09-05 10:18:00,79.9,63.3,30.00,WSW,246,0.0,9.0,57,0.00,,,0.00,WUHU216DAVISVP2,2013-09-05 14:18:00,
2013-09-05 10:23:00,80.2,62.8,30.00,WSW,243,1.0,9.0,55,0.00,,,0.00,WUHU216DAVISVP2,2013-09-05 14:23:00,
2013-09-05 10:28:00,79.9,63.0,30.00,South,191,3.0,10.0,56,0.00,,,0.00,WUHU216DAVISVP2,2013-09-05 14:28:00,
2013-09-05 10:33:00,80.0,63.6,30.00,West,270,1.0,10.0,57,0.00,,,0.00,WUHU216DAVISVP2,2013-09-05 14:33:00,
2013-09-05 10:38:00,80.0,62.6,30.00,SW,235,1.0,10.0,55,0.00,,,0.00,WUHU216DAVISVP2,2013-09-05 14:38:00,
2013-09-05 10:43:00,80.2,62.6,30.00,NNW,348,1.0,10.0,55,0.00,,,0.00,WUHU216DAVISVP2,2013-09-05 14:43:00,
2013-09-05 10:49:00,80.8,63.3,29.99,NNW,335,8.0,9.0,55,0.00,,,0.00,WUHU216DAVISVP2,2013-09-05 14:49:00,
2013-09-05 10:54:00,80.7,62.7,30.00,NNW,328,4.0,9.0,54,0.00,,,0.00,WUHU216DAVISVP2,2013-09-05 14:54:00,
2013-09-05 10:59:00,80.6,63.1,30.00,NNE,32,4.0,8.0,55,0.00,,,0.00,WUHU216DAVISVP2,2013-09-05 14:59:00,
2013-09-05 11:04:00,80.7,63.2,30.00,SSW,200,1.0,8.0,55,0.00,,,0.00,WUHU216DAVISVP2,2013-09-05 15:04:00,
2013-09-05 11:09:00,81.4,62.8,30.00,SSW,204,4.0,8.0,53,0.00,,,0.00,WUHU216DAVISVP2,2013-09-05 15:09:00,
2013-09-05 11:14:00,81.5,63.3,30.00,North,4,4.0,8.0,54,0.00,,,0.00,WUHU216DAVISVP2,2013-09-05 15:14:00,
2013-09-05 11:19:00,80.9,63.2,30.00,NW,323,0.0,8.0,55,0.00,,,0.00,WUHU216DAVISVP2,2013-09-05 15:19:00,
2013-09-05 11:24:00,80.8,62.8,30.00,NNW,330,2.0,9.0,54,0.00,,,0.00,WUHU216DAVISVP2,2013-09-05 15:24:00,
2013-09-05 11:29:00,80.7,63.0,30.00,NNW,333,1.0,9.0,55,0.00,,,0.00,WUHU216DAVISVP2,2013-09-05 15:29:00,
2013-09-05 11:34:00,80.7,63.2,30.00,NNW,335,1.0,9.0,55,0.00,,,0.00,WUHU216DAVISVP2,2013-09-05 15:34:00,
2013-09-05 11:39:00,81.3,63.6,30.00,NW,326,1.0,9.0,55,0.00,,,0.00,WUHU216DAVISVP2,2013-09-05 15:39:00,
2013-09-05 11:44:00,81.2,62.4,30.00,NNW,341,3.0,8.0,53,0.00,,,0.00,WUHU216DAVISVP2,2013-09-05 15:44:00,
2013-09-05 11:49:00,81.2,64.2,30.00,SSW,213,0.0,8.0,56,0.00,,,0.00,WUHU216DAVISVP2,2013-09-05 15:49:00,
2013-09-05 11:54:00,81.9,64.3,30.00,WSW,239,1.0,8.0,55,0.00,,,0.00,WUHU216DAVISVP2,2013-09-05 15:54:00,
2013-09-05 11:59:00,82.6,64.5,30.00,NW,323,0.0,8.0,54,0.00,,,0.00,WUHU216DAVISVP2,2013-09-05 15:59:00,
2013-09-05 12:04:00,82.2,64.1,30.00,NW,314,4.0,8.0,54,0.00,,,0.00,WUHU216DAVISVP2,2013-09-05 16:04:00,
2013-09-05 12:09:00,82.3,64.7,30.00,SSW,197,0.0,8.0,55,0.00,,,0.00,WUHU216DAVISVP2,2013-09-05 16:09:00,
2013-09-05 12:14:00,82.7,63.8,29.99,NNE,12,1.0,6.0,53,0.00,,,0.00,WUHU216DAVISVP2,2013-09-05 16:14:00,
2013-09-05 12:19:00,83.6,64.3,29.99,SSW,193,1.0,6.0,52,0.00,,,0.00,WUHU216DAVISVP2,2013-09-05 16:19:00,
2013-09-05 12:24:00,84.5,64.4,29.99,SSW,195,1.0,6.0,51,0.00,,,0.00,WUHU216DAVISVP2,2013-09-05 16:24:00,
2013-09-05 12:29:00,85.0,65.0,29.99,NW,321,7.0,7.0,51,0.00,,,0.00,WUHU216DAVISVP2,2013-09-05 16:29:00,
2013-09-05 12:34:00,84.3,63.8,29.99,North,350,3.0,7.0,50,0.00,,,0.00,WUHU216DAVISVP2,2013-09-05 16:34:00,
2013-09-05 12:39:00,83.5,64.6,29.99,North,8,2.0,7.0,53,0.00,,,0.00,WUHU216DAVISVP2,2013-09-05 16:39:00,
2013-09-05 12:44:00,82.7,63.3,29.98,North,8,4.0,9.0,52,0.00,,,0.00,WUHU216DAVISVP2,2013-09-05 16:44:00,
2013-09-05 12:49:00,83.1,64.2,29.98,SSW,193,0.0,9.0,53,0.00,,,0.00,WUHU216DAVISVP2,2013-09-05 16:49:00,
2013-09-05 12:54:00,83.4,64.1,29.98,WNW,295,2.0,9.0,52,0.00,,,0.00,WUHU216DAVISVP2,2013-09-05 16:54:00,
2013-09-05 12:59:00,83.1,63.8,29.98,WNW,283,3.0,10.0,52,0.00,,,0.00,WUHU216DAVISVP2,2013-09-05 16:59:00,
2013-09-05 13:04:00,83.4,64.1,29.98,North,359,4.0,10.0,52,0.00,,,0.00,WUHU216DAVISVP2,2013-09-05 17:04:00,
2013-09-05 13:09:00,83.6,64.3,29.98,NW,324,0.0,10.0,52,0.00,,,0.00,WUHU216DAVISVP2,2013-09-05 17:09:00,
2013-09-05 13:14:00,83.8,64.5,29.98,North,11,2.0,10.0,52,0.00,,,0.00,WUHU216DAVISVP2,2013-09-05 17:14:00,
2013-09-05 13:19:00,83.7,64.4,29.98,North,354,0.0,8.0,52,0.00,,,0.00,WUHU216DAVISVP2,2013-09-05 17:19:00,
2013-09-05 13:24:00,84.4,64.3,29.98,SSW,200,0.0,8.0,51,0.00,,,0.00,WUHU216DAVISVP2,2013-09-05 17:24:00,
2013-09-05 13:29:00,84.8,64.2,29.98,West,265,0.0,8.0,50,0.00,,,0.00,WUHU216DAVISVP2,2013-09-05 17:29:00,
2013-09-05 13:34:00,84.7,63.6,29.98,NNW,335,1.0,9.0,49,0.00,,,0.00,WUHU216DAVISVP2,2013-09-05 17:34:00,
2013-09-05 13:39:00,84.4,64.3,29.98,WNW,301,2.0,9.0,51,0.00,,,0.00,WUHU216DAVISVP2,2013-09-05 17:39:00,
2013-09-05 13:44:00,84.5,64.0,29.98,SW,214,2.0,9.0,50,0.00,,,0.00,WUHU216DAVISVP2,2013-09-05 17:44:00,
2013-09-05 13:49:00,85.0,64.3,29.98,NNW,342,3.0,9.0,50,0.00,,,0.00,WUHU216DAVISVP2,2013-09-05 17:49:00,
2013-09-05 13:54:00,85.2,65.2,29.97,WNW,301,2.0,7.0,51,0.00,,,0.00,WUHU216DAVISVP2,2013-09-05 17:54:00,
2013-09-05 13:59:00,85.9,64.0,29.97,SSE,164,2.0,7.0,48,0.00,,,0.00,WUHU216DAVISVP2,2013-09-05 17:59:00,
2013-09-05 14:04:00,86.4,63.8,29.97,SE,132,1.0,5.0,47,0.00,,,0.00,WUHU216DAVISVP2,2013-09-05 18:04:00,
2013-09-05 14:09:00,86.3,63.1,29.97,NW,307,4.0,5.0,46,0.00,,,0.00,WUHU216DAVISVP2,2013-09-05 18:09:00,
2013-09-05 14:14:00,85.6,63.2,29.97,SSW,194,0.0,9.0,47,0.00,,,0.00,WUHU216DAVISVP2,2013-09-05 18:14:00,
2013-09-05 14:19:00,86.0,63.5,29.97,SE,141,4.0,9.0,47,0.00,,,0.00,WUHU216DAVISVP2,2013-09-05 18:19:00,
2013-09-05 14:24:00,86.2,62.4,29.97,South,180,5.0,9.0,45,0.00,,,0.00,WUHU216DAVISVP2,2013-09-05 18:24:00,
2013-09-05 14:29:00,86.4,63.9,29.97,NNW,339,1.0,9.0,47,0.00,,,0.00,WUHU216DAVISVP2,2013-09-05 18:29:00,
2013-09-05 14:34:00,86.2,63.1,29.97,North,11,4.0,8.0,46,0.00,,,0.00,WUHU216DAVISVP2,2013-09-05 18:34:00,
2013-09-05 14:39:00,85.7,63.9,29.97,North,8,5.0,7.0,48,0.00,,,0.00,WUHU216DAVISVP2,2013-09-05 18:39:00,
2013-09-05 14:44:00,85.4,62.9,29.97,South,191,1.0,7.0,47,0.00,,,0.00,WUHU216DAVISVP2,2013-09-05 18:44:00,
2013-09-05 14:49:00,84.8,62.9,29.97,NW,326,1.0,7.0,48,0.00,,,0.00,WUHU216DAVISVP2,2013-09-05 18:49:00,
2013-09-05 14:54:00,84.7,62.2,29.96,NNE,17,3.0,8.0,47,0.00,,,0.00,WUHU216DAVISVP2,2013-09-05 18:54:00,
2013-09-05 14:59:00,84.5,62.1,29.96,NW,319,4.0,8.0,47,0.00,,,0.00,WUHU216DAVISVP2,2013-09-05 18:59:00,
2013-09-05 15:04:00,84.3,61.3,29.96,NNW,332,1.0,11.0,46,0.00,,,0.00,WUHU216DAVISVP2,2013-09-05 19:04:00,
2013-09-05 15:09:00,84.6,62.1,29.96,WNW,284,3.0,11.0,47,0.00,,,0.00,WUHU216DAVISVP2,2013-09-05 19:09:00,
2013-09-05 15:14:00,84.9,62.5,29.96,North,10,4.0,11.0,47,0.00,,,0.00,WUHU216DAVISVP2,2013-09-05 19:14:00,
2013-09-05 15:19:00,85.1,60.8,29.96,NW,312,2.0,11.0,44,0.00,,,0.00,WUHU216DAVISVP2,2013-09-05 19:19:00,
2013-09-05 15:24:00,84.8,61.7,29.96,WNW,289,6.0,9.0,46,0.00,,,0.00,WUHU216DAVISVP2,2013-09-05 19:24:00,
2013-09-05 15:29:00,84.4,62.7,29.96,NNW,334,4.0,9.0,48,0.00,,,0.00,WUHU216DAVISVP2,2013-09-05 19:29:00,
2013-09-05 15:34:00,84.4,62.7,29.96,NW,318,2.0,9.0,48,0.00,,,0.00,WUHU216DAVISVP2,2013-09-05 19:34:00,
2013-09-05 15:39:00,84.9,62.5,29.96,SW,221,0.0,9.0,47,0.00,,,0.00,WUHU216DAVISVP2,2013-09-05 19:39:00,
2013-09-05 15:44:00,84.8,61.7,29.96,SSW,207,1.0,8.0,46,0.00,,,0.00,WUHU216DAVISVP2,2013-09-05 19:44:00,
2013-09-05 15:49:00,84.3,62.0,29.96,West,267,9.0,12.0,47,0.00,,,0.00,WUHU216DAVISVP2,2013-09-05 19:49:00,
2013-09-05 15:54:00,84.5,61.5,29.96,SSW,202,1.0,12.0,46,0.00,,,0.00,WUHU216DAVISVP2,2013-09-05 19:54:00,
2013-09-05 15:59:00,83.6,61.3,29.96,NW,308,1.0,12.0,47,0.00,,,0.00,WUHU216DAVISVP2,2013-09-05 19:59:00,
2013-09-05 16:04:00,83.0,62.0,29.96,NNE,20,2.0,12.0,49,0.00,,,0.00,WUHU216DAVISVP2,2013-09-05 20:04:00,
2013-09-05 16:09:00,82.9,62.5,29.96,WNW,291,2.0,11.0,50,0.00,,,0.00,WUHU216DAVISVP2,2013-09-05 20:09:00,
2013-09-05 16:14:00,82.6,61.6,29.96,NW,314,2.0,11.0,49,0.00,,,0.00,WUHU216DAVISVP2,2013-09-05 20:14:00,
2013-09-05 16:19:00,82.7,61.6,29.96,WNW,295,6.0,10.0,49,0.00,,,0.00,WUHU216DAVISVP2,2013-09-05 20:19:00,
2013-09-05 16:24:00,82.5,61.4,29.96,NNW,338,3.0,9.0,49,0.00,,,0.00,WUHU216DAVISVP2,2013-09-05 20:24:00,
2013-09-05 16:29:00,82.7,62.2,29.96,NNW,328,3.0,9.0,50,0.00,,,0.00,WUHU216DAVISVP2,2013-09-05 20:29:00,
2013-09-05 16:34:00,82.5,61.5,29.96,West,260,3.0,10.0,49,0.00,,,0.00,WUHU216DAVISVP2,2013-09-05 20:34:00,
2013-09-05 16:39:00,82.3,61.9,29.96,WNW,289,1.0,10.0,50,0.00,,,0.00,WUHU216DAVISVP2,2013-09-05 20:39:00,
2013-09-05 16:44:00,82.1,61.7,29.96,WNW,300,5.0,10.0,50,0.00,,,0.00,WUHU216DAVISVP2,2013-09-05 20:44:00,
2013-09-05 16:49:00,82.0,61.7,29.96,NNW,331,4.0,10.0,50,0.00,,,0.00,WUHU216DAVISVP2,2013-09-05 20:49:00,
2013-09-05 16:54:00,82.1,61.2,29.96,NNE,14,1.0,8.0,49,0.00,,,0.00,WUHU216DAVISVP2,2013-09-05 20:54:00,
2013-09-05 16:59:00,82.2,60.6,29.96,North,9,1.0,8.0,48,0.00,,,0.00,WUHU216DAVISVP2,2013-09-05 20:59:00,
2013-09-05 17:04:00,82.3,60.7,29.96,NNW,347,1.0,8.0,48,0.00,,,0.00,WUHU216DAVISVP2,2013-09-05 21:04:00,
2013-09-05 17:09:00,82.3,60.1,29.96,NNW,346,3.0,8.0,47,0.00,,,0.00,WUHU216DAVISVP2,2013-09-05 21:09:00,
2013-09-05 17:14:00,82.3,60.7,29.96,West,274,1.0,8.0,48,0.00,,,0.00,WUHU216DAVISVP2,2013-09-05 21:14:00,
2013-09-05 17:19:00,82.4,60.2,29.97,NNW,329,2.0,9.0,47,0.00,,,0.00,WUHU216DAVISVP2,2013-09-05 21:19:00,
2013-09-05 17:24:00,82.4,59.6,29.97,West,280,4.0,9.0,46,0.00,,,0.00,WUHU216DAVISVP2,2013-09-05 21:24:00,
2013-09-05 17:29:00,82.3,60.1,29.97,NW,316,3.0,9.0,47,0.00,,,0.00,WUHU216DAVISVP2,2013-09-05 21:29:00,
2013-09-05 17:34:00,81.8,60.3,29.97,WNW,299,3.0,9.0,48,0.00,,,0.00,WUHU216DAVISVP2,2013-09-05 21:34:00,
2013-09-05 17:39:00,81.4,59.9,29.97,NNW,337,5.0,8.0,48,0.00,,,0.00,WUHU216DAVISVP2,2013-09-05 21:39:00,
2013-09-05 17:44:00,81.2,60.3,29.97,ENE,68,3.0,8.0,49,0.00,,,0.00,WUHU216DAVISVP2,2013-09-05 21:44:00,
2013-09-05 17:49:00,81.1,60.8,29.97,WNW,289,0.0,8.0,50,0.00,,,0.00,WUHU216DAVISVP2,2013-09-05 21:49:00,
2013-09-05 17:54:00,80.9,60.0,29.97,NW,316,1.0,8.0,49,0.00,,,0.00,WUHU216DAVISVP2,2013-09-05 21:54:00,
2013-09-05 17:59:00,80.5,60.3,29.98,WNW,301,3.0,8.0,50,0.00,,,0.00,WUHU216DAVISVP2,2013-09-05 21:59:00,
2013-09-05 18:04:00,80.2,60.6,29.98,West,280,2.0,7.0,51,0.00,,,0.00,WUHU216DAVISVP2,2013-09-05 22:04:00,
2013-09-05 18:09:00,80.0,60.4,29.98,NW,310,4.0,6.0,51,0.00,,,0.00,WUHU216DAVISVP2,2013-09-05 22:09:00,
2013-09-05 18:14:00,79.7,60.7,29.98,North,4,0.0,6.0,52,0.00,,,0.00,WUHU216DAVISVP2,2013-09-05 22:14:00,
2013-09-05 18:19:00,79.5,60.5,29.98,WNW,299,0.0,6.0,52,0.00,,,0.00,WUHU216DAVISVP2,2013-09-05 22:19:00,
2013-09-05 18:24:00,79.3,60.8,29.98,NNW,340,1.0,6.0,53,0.00,,,0.00,WUHU216DAVISVP2,2013-09-05 22:24:00,
2013-09-05 18:29:00,79.2,60.7,29.98,North,9,2.0,6.0,53,0.00,,,0.00,WUHU216DAVISVP2,2013-09-05 22:29:00,
2013-09-05 18:34:00,78.9,61.0,29.98,WNW,296,1.0,6.0,54,0.00,,,0.00,WUHU216DAVISVP2,2013-09-05 22:34:00,
2013-09-05 18:39:00,78.8,60.9,29.98,NW,310,3.0,8.0,54,0.00,,,0.00,WUHU216DAVISVP2,2013-09-05 22:39:00,
2013-09-05 18:44:00,78.6,61.3,29.98,NNW,331,3.0,8.0,55,0.00,,,0.00,WUHU216DAVISVP2,2013-09-05 22:44:00,
2013-09-05 18:49:00,78.5,61.2,29.98,NNW,337,0.0,8.0,55,0.00,,,0.00,WUHU216DAVISVP2,2013-09-05 22:49:00,
2013-09-05 18:54:00,78.4,61.6,29.98,NW,322,0.0,8.0,56,0.00,,,0.00,WUHU216DAVISVP2,2013-09-05 22:54:00,
2013-09-05 18:59:00,78.4,62.1,29.99,North,4,0.0,6.0,57,0.00,,,0.00,WUHU216DAVISVP2,2013-09-05 22:59:00,
2013-09-05 19:04:00,78.2,62.4,29.99,North,4,0.0,5.0,58,0.00,,,0.00,WUHU216DAVISVP2,2013-09-05 23:04:00,
2013-09-05 19:09:00,77.9,62.6,29.99,North,4,0.0,5.0,59,0.00,,,0.00,WUHU216DAVISVP2,2013-09-05 23:09:00,
2013-09-05 19:14:00,77.7,62.4,29.99,North,4,0.0,2.0,59,0.00,,,0.00,WUHU216DAVISVP2,2013-09-05 23:14:00,
2013-09-05 19:19:00,77.5,62.3,29.99,North,4,0.0,1.0,59,0.00,,,0.00,WUHU216DAVISVP2,2013-09-05 23:19:00,
2013-09-05 19:24:00,77.4,61.7,29.99,North,4,0.0,1.0,58,0.00,,,0.00,WUHU216DAVISVP2,2013-09-05 23:24:00,
2013-09-05 19:29:00,77.1,61.4,29.99,North,4,0.0,1.0,58,0.00,,,0.00,WUHU216DAVISVP2,2013-09-05 23:29:00,
2013-09-05 19:34:00,76.9,61.2,29.99,North,4,0.0,1.0,58,0.00,,,0.00,WUHU216DAVISVP2,2013-09-05 23:34:00,
2013-09-05 19:39:00,76.7,61.0,29.99,SW,214,3.0,4.0,58,0.00,,,0.00,WUHU216DAVISVP2,2013-09-05 23:39:00,
2013-09-05 19:44:00,76.6,60.9,29.99,SW,214,0.0,4.0,58,0.00,,,0.00,WUHU216DAVISVP2,2013-09-05 23:44:00,
2013-09-05 19:49:00,76.4,60.7,30.00,SW,214,1.0,4.0,58,0.00,,,0.00,WUHU216DAVISVP2,2013-09-05 23:49:00,
2013-09-05 19:54:00,76.3,60.1,30.00,NNW,341,0.0,4.0,57,0.00,,,0.00,WUHU216DAVISVP2,2013-09-05 23:54:00,
2013-09-05 19:59:00,76.2,60.0,30.00,SW,218,1.0,3.0,57,0.00,,,0.00,WUHU216DAVISVP2,2013-09-05 23:59:00,
2013-09-05 20:04:00,76.2,59.5,30.00,NE,48,0.0,3.0,56,0.00,,,0.00,WUHU216DAVISVP2,2013-09-06 00:04:00,
2013-09-05 20:09:00,76.1,58.9,30.00,North,359,0.0,3.0,55,0.00,,,0.00,WUHU216DAVISVP2,2013-09-06 00:09:00,
2013-09-05 20:14:00,76.0,58.8,30.01,NW,316,0.0,3.0,55,0.00,,,0.00,WUHU216DAVISVP2,2013-09-06 00:14:00,
2013-09-05 20:19:00,75.9,59.1,30.01,NNW,333,0.0,3.0,56,0.00,,,0.00,WUHU216DAVISVP2,2013-09-06 00:19:00,
2013-09-05 20:24:00,75.8,59.5,30.02,NW,313,1.0,3.0,57,0.00,,,0.00,WUHU216DAVISVP2,2013-09-06 00:24:00,
2013-09-05 20:29:00,75.8,59.7,30.02,WNW,299,5.0,5.0,57,0.00,,,0.00,WUHU216DAVISVP2,2013-09-06 00:29:00,
2013-09-05 20:34:00,75.9,59.3,30.02,NW,318,2.0,6.0,56,0.00,,,0.00,WUHU216DAVISVP2,2013-09-06 00:34:00,
2013-09-05 20:39:00,75.9,58.2,30.02,North,354,2.0,6.0,54,0.00,,,0.00,WUHU216DAVISVP2,2013-09-06 00:39:00,
2013-09-05 20:44:00,75.9,58.2,30.03,North,359,2.0,7.0,54,0.00,,,0.00,WUHU216DAVISVP2,2013-09-06 00:44:00,
2013-09-05 20:49:00,75.8,57.4,30.03,NNW,343,2.0,8.0,53,0.00,,,0.00,WUHU216DAVISVP2,2013-09-06 00:49:00,
2013-09-05 20:54:00,75.8,56.4,30.03,WNW,295,6.0,8.0,51,0.00,,,0.00,WUHU216DAVISVP2,2013-09-06 00:54:00,
2013-09-05 20:59:00,75.7,55.8,30.04,NNW,341,2.0,8.0,50,0.00,,,0.00,WUHU216DAVISVP2,2013-09-06 00:59:00,
2013-09-05 21:04:00,75.6,55.7,30.04,NNW,348,1.0,8.0,50,0.00,,,0.00,WUHU216DAVISVP2,2013-09-06 01:04:00,
2013-09-05 21:09:00,75.4,55.0,30.04,NW,324,2.0,8.0,49,0.00,,,0.00,WUHU216DAVISVP2,2013-09-06 01:09:00,
2013-09-05 21:14:00,75.2,54.2,30.04,North,359,2.0,8.0,48,0.00,,,0.00,WUHU216DAVISVP2,2013-09-06 01:14:00,
2013-09-05 21:19:00,75.1,54.6,30.04,NNW,336,1.0,6.0,49,0.00,,,0.00,WUHU216DAVISVP2,2013-09-06 01:19:00,
2013-09-05 21:25:00,74.9,55.0,30.05,North,354,1.0,6.0,50,0.00,,,0.00,WUHU216DAVISVP2,2013-09-06 01:25:00,
2013-09-05 21:30:00,74.7,55.5,30.05,North,9,1.0,5.0,51,0.00,,,0.00,WUHU216DAVISVP2,2013-09-06 01:30:00,
2013-09-05 21:35:00,74.4,55.6,30.05,NNW,335,0.0,4.0,52,0.00,,,0.00,WUHU216DAVISVP2,2013-09-06 01:35:00,
2013-09-05 21:40:00,74.1,55.3,30.05,NNW,341,0.0,3.0,52,0.00,,,0.00,WUHU216DAVISVP2,2013-09-06 01:40:00,
2013-09-05 21:45:00,73.8,55.6,30.06,NNW,341,1.0,3.0,53,0.00,,,0.00,WUHU216DAVISVP2,2013-09-06 01:45:00,
2013-09-05 21:50:00,73.5,56.5,30.06,WNW,291,3.0,3.0,55,0.00,,,0.00,WUHU216DAVISVP2,2013-09-06 01:50:00,
2013-09-05 21:55:00,73.2,56.6,30.06,NW,317,5.0,6.0,56,0.00,,,0.00,WUHU216DAVISVP2,2013-09-06 01:55:00,
2013-09-05 22:00:00,73.2,57.2,30.06,North,354,2.0,6.0,57,0.00,,,0.00,WUHU216DAVISVP2,2013-09-06 02:00:00,
2013-09-05 22:05:00,73.3,57.8,30.06,NNW,337,3.0,6.0,58,0.00,,,0.00,WUHU216DAVISVP2,2013-09-06 02:05:00,
2013-09-05 22:10:00,73.2,57.7,30.06,NW,326,3.0,6.0,58,0.00,,,0.00,WUHU216DAVISVP2,2013-09-06 02:10:00,
2013-09-05 22:15:00,73.0,57.8,30.07,North,4,2.0,4.0,59,0.00,,,0.00,WUHU216DAVISVP2,2013-09-06 02:15:00,
2013-09-05 22:20:00,73.1,59.0,30.07,North,354,2.0,6.0,61,0.00,,,0.00,WUHU216DAVISVP2,2013-09-06 02:20:00,
2013-09-05 22:25:00,73.3,57.1,30.07,NNE,29,3.0,7.0,57,0.00,,,0.00,WUHU216DAVISVP2,2013-09-06 02:25:00,
2013-09-05 22:30:00,73.4,56.9,30.08,NNE,32,2.0,7.0,56,0.00,,,0.00,WUHU216DAVISVP2,2013-09-06 02:30:00,
2013-09-05 22:35:00,73.3,56.3,30.08,NNE,28,3.0,7.0,55,0.00,,,0.00,WUHU216DAVISVP2,2013-09-06 02:35:00,
2013-09-05 22:40:00,73.1,56.6,30.08,NE,35,2.0,7.0,56,0.00,,,0.00,WUHU216DAVISVP2,2013-09-06 02:40:00,
2013-09-05 22:45:00,72.9,56.4,30.08,NNE,33,3.0,7.0,56,0.00,,,0.00,WUHU216DAVISVP2,2013-09-06 02:45:00,
2013-09-05 22:50:00,72.7,55.7,30.08,NW,314,2.0,7.0,55,0.00,,,0.00,WUHU216DAVISVP2,2013-09-06 02:50:00,
2013-09-05 22:55:00,72.5,54.5,30.08,NNE,21,5.0,7.0,53,0.00,,,0.00,WUHU216DAVISVP2,2013-09-06 02:55:00,
2013-09-05 23:00:00,72.4,53.3,30.08,NNE,13,6.0,7.0,51,0.00,,,0.00,WUHU216DAVISVP2,2013-09-06 03:00:00,
2013-09-05 23:05:00,72.3,53.2,30.08,North,10,3.0,8.0,51,0.00,,,0.00,WUHU216DAVISVP2,2013-09-06 03:05:00,
2013-09-05 23:10:00,72.2,52.6,30.08,NNE,23,2.0,8.0,50,0.00,,,0.00,WUHU216DAVISVP2,2013-09-06 03:10:00,
2013-09-05 23:15:00,72.0,52.4,30.08,NNW,339,2.0,8.0,50,0.00,,,0.00,WUHU216DAVISVP2,2013-09-06 03:15:00,
2013-09-05 23:20:00,71.8,52.8,30.08,North,10,4.0,8.0,51,0.00,,,0.00,WUHU216DAVISVP2,2013-09-06 03:20:00,
2013-09-05 23:25:00,71.6,52.6,30.08,NNE,29,2.0,8.0,51,0.00,,,0.00,WUHU216DAVISVP2,2013-09-06 03:25:00,
2013-09-05 23:30:00,71.5,52.5,30.08,East,79,2.0,7.0,51,0.00,,,0.00,WUHU216DAVISVP2,2013-09-06 03:30:00,
2013-09-05 23:35:00,71.4,52.4,30.08,North,4,3.0,7.0,51,0.00,,,0.00,WUHU216DAVISVP2,2013-09-06 03:35:00,
2013-09-05 23:40:00,71.3,52.3,30.09,NE,37,3.0,6.0,51,0.00,,,0.00,WUHU216DAVISVP2,2013-09-06 03:40:00,
2013-09-05 23:45:00,71.1,53.2,30.09,NNE,29,0.0,6.0,53,0.00,,,0.00,WUHU216DAVISVP2,2013-09-06 03:45:00,
2013-09-05 23:50:00,70.9,54.1,30.09,NNE,32,1.0,5.0,55,0.00,,,0.00,WUHU216DAVISVP2,2013-09-06 03:50:00,
2013-09-05 23:55:00,70.8,53.5,30.09,NNE,27,2.0,6.0,54,0.00,,,0.00,WUHU216DAVISVP2,2013-09-06 03:55:00,